Location: Kuffner-Sternwarte
(48.2130°N, 16.2960°E)
Time: 21:20:32
(UTC+02:00)

COROT - Pass Details

Date: 26 March 2017
Orbit: 602 x 888 km, 90.0° (Epoch: 21 May)

Event Time Altitude Azimuth Distance (km) Brightness Sun altitude
Rises 00:19:47 0° 3° (N) 3,090 10.0 -39.4°
Reaches altitude 10° 00:22:00 10° 6° (N) 2,210 9.1 -39.4°
Enters shadow 00:23:13 18° 9° (N) 1,743 8.4 -39.4°
